SCP
0 0 0 0 0 0 0 0 0 0 0 0 0 0 0 0 0 0 0 0 0 0 0 0 0 0 0 0 0 0 0 0 0 0 0 0 0 0 0 0 0 0 0
0 0 0 0 0 0 0 0 0 0 0 0 0 0 0 0 0 0 0 0 0 0 0 0 0 0 0 0 0 0 0 0 0 0 0 0 0 0 0 0 0 0 0
0 0 0 0 0 0 0 0 0 0 0 0 0 0 0 0 0 0 0 0 0 0 0 0 0 0 0 0 0 0 0 0 0 0 0 0 0 0 0 0 0 0 0
0 0 0 0 0 0 0 0 0 0 0 0 0 0 0 0 0 0 0 0 0 0 0 0 0 0 0 0 0 0 0 0 0 0 0 0 0 0 0 0 0 0 0
0 0 0 0 0 0 0 0 0 0 0 0 0 0 0 0 0 0 0 0 0 0 0 0 0 0 0 0 0 0 0 0 0 0 0 0 0 0 0 0 0 0 0
0 0 0 0 0 0 0 0 0 0 0 0 0 0 0 0 0 0 0 0 0 0 0 0 0 0 0 0 0 0 0 0 0 0 0 0 0 0 0 0 0 0 0
0 0 0 0 0 0 0 0 0 0 0 0 0 0 0 0 0 0 0 0 0 0 0 -0 0 0 0 0 0 0 0 0 0 0 0 0 0 0 0 0 0 0 0
0 0 0 0 0 0 0 0 0 0 0 0 0 0 0 0 0 -0 -0 -0 0 0 -0 -0 0 0 0 0 0 0 0 0 0 0 0 0 0 0 0 0 0 0 0
0 0 0 0 0 0 0 0 0 0 0 0 0 0 0 0 0 -0 -0 -0 -0 0 0 0 0 0 0 0 0 0 0 0 0 0 0 0 0 0 0 0 0 0 0
0 0 0 0 0 0 0 0 0 0 0 0 0 0 0 0 0 0 0 0 0 0 0 0 0 0 0 0 0 0 0 0 0 0 0 0 0 0 0 0 0 0 0
0 0 0 0 0 0 0 0 0 0 0 0 0 0 0 0 0 0 0 0 0 0 0 0 0 0 0 0 0 0 0 0 0 0 0 0 0 0 0 0 0 0 0
0 0 0 0 0 0 0 0 0 0 0 0 0 0 0 0 0 0 0 0 0 0 0 0 0 0 0 0 0 0 0 0 0 0 0 0 0 0 0 0 0 0 0
0 0 0 0 0 0 0 0 0 0 0 0 0 0 0 0 0 0 0 0 0 0 0 0 0 0 0 0 0 0 0 0 0 0 0 0 0 0 0 0 0 0 0
0 0 0 0 0 0 0 0 0 0 0 0 0 0 0 0 0 0 0 0 0 0 0 0 0 0 0 0 0 0 0 0 0 0 0 0 0 0 0 0 0 0 0
0 0 0 0 0 0 0 0 0 0 0 0 0 0 0 0 0 0 0 0 0 0 0 0 0 0 0 0 0 0 0 0 0 0 0 0 0 0 0 0 0 0 0
0 0 0 0 0 0 0 0 0 0 0 0 0 0 0 0 0 0 0 0 0 0 0 0 0 0 0 0 0 0 0 0 0 0 0 0 0 0 0 0 0 0 0
0 0 0 0 0 0 0 0 0 0 0 0 0 0 0 0 0 0 0 0 0 0 0 0 0 0 0 0 0 0 0 0 0 0 0 0 0 0 0 0 0 0 0
0 0 0 0 0 0 0 0 0 0 0 0 0 0 0 0 0 0 0 0 0 0 0 0 0 0 0 0 0 0 0 0 0 0 0 0 0 0 0 0 0 0 0
0 0 0 0 0 0 0 0 0 0 0 0 0 0 0 0 0 0 0 0 0 0 0 0 0 0 0 0 0 0 0 0 0 0 0 0 0 0 0 0 0 0 0
0 0 0 0 0 0 0 0 0 0 0 0 0 0 0 0 0 0 0 0 0 0 0 0 0 0 0 0 0 0 0 0 0 0 0 0 0 0 0 0 0 0 0
0 0 0 0 0 0 0 0 0 0 0 0 0 0 0 0 0 0 0 0 0 0 0 0 0 0 0 0 0 0 0 0 0 0 0 0 0 0 0 0 0 0 0
0 0 0 0 0 0 0 0 0 -0 0 0 0 0 0 0 0 0 0 0 0 0 0 0 0 0 0 0 0 0 0 0 0 0 0 0 0 0 0 0 0 0 0
0 0 0 0 0 -0 0 0 -0 -0 -0 -0 0 0 0 0 0 0 0 0 0 0 0 0 0 0 0 0 0 0 0 0 0 0 0 0 0 0 0 0 0 0 0
0 0 0 0 0 0 0 0 0 -0 -0 -0 -0 0 0 0 0 0 0 0 0 0 0 0 0 0 0 0 0 0 0 0 0 0 0 0 0 0 0 0 0 0 0
0 0 0 0 0 0 0 0 0 0 0 -0 -0 0 0 0 0 0 0 0 0 0 0 0 0 0 0 0 0 0 0 0 0 0 0 0 0 0 -0 0 0 0 0
0 0 0 0 0 0 0 0 0 0 0 0 -0 0 0 0 0 0 0 0 0 0 0 0 0 0 0 0 0 0 0 0 0 0 0 0 0 0 -0 0 0 0 0
Wind_Speed
2 1 0 0 1 1 2 2 3 3 3 3 4 5 4 4 4 3 3 8 9 9 9 9 9 9 9 8 8 8 8 8 8 9 9 9 8 8 9 9 9 9 9
2 2 1 1 1 1 2 3 4 4 4 4 4 4 4 3 4 4 3 5 9 9 9 9 10 10 9 9 9 9 9 9 9 8 8 9 8 8 9 9 9 9 9
3 2 2 1 1 2 3 4 4 4 4 5 4 4 4 4 4 4 3 3 4 7 9 10 10 10 10 10 10 9 9 9 9 9 9 9 8 8 8 9 9 9 9
3 3 2 2 2 3 3 4 3 4 4 4 3 3 3 3 4 3 3 3 3 4 6 10 11 11 11 11 10 9 9 9 8 9 8 8 8 8 9 9 9 9 9
4 3 2 2 3 3 3 4 3 3 4 4 4 4 3 3 3 4 4 4 4 4 4 7 11 11 11 11 11 10 10 9 9 9 9 9 9 9 9 9 9 9 10
3 4 3 3 3 3 3 3 4 3 3 3 5 5 4 3 3 3 3 3 3 4 4 4 4 7 11 10 10 10 10 9 9 9 9 9 9 8 9 9 10 10 10
3 3 3 3 3 3 3 4 4 4 3 3 4 4 4 4 4 3 3 3 3 4 4 4 4 3 4 10 10 10 10 10 9 9 9 9 9 9 9 9 10 10 10
3 4 3 3 3 3 3 3 3 3 1 1 3 3 2 3 4 4 3 3 3 3 4 5 4 4 4 3 6 10 10 10 10 9 9 9 9 9 9 9 9 10 10
3 3 3 3 3 3 3 3 3 4 2 0 1 3 3 2 1 3 3 3 3 3 3 3 4 4 4 3 4 7 9 9 9 9 9 9 9 9 9 9 9 10 10
2 2 3 3 3 3 3 3 3 3 3 1 0 1 2 4 3 1 2 3 3 3 2 3 3 3 3 3 5 8 9 9 9 9 9 9 10 9 9 9 9 9 10
1 2 3 3 3 2 3 3 3 3 2 2 1 1 2 2 2 3 1 1 2 2 2 2 2 2 3 3 3 6 9 9 9 9 9 9 9 10 10 9 9 9 10
1 1 2 2 3 2 3 3 3 3 2 2 2 2 2 2 2 3 3 1 0 1 2 1 2 2 2 2 3 7 8 9 9 9 9 9 9 9 9 9 9 9 9
0 1 2 2 2 2 2 3 3 2 2 2 2 1 1 2 2 3 4 2 1 1 1 2 1 1 2 2 2 6 7 8 8 8 9 9 9 9 9 9 9 9 10
2 2 2 2 2 2 3 3 2 2 2 2 2 2 2 1 2 3 4 4 2 1 2 1 2 2 2 1 3 4 4 7 8 7 7 8 8 9 9 9 9 10 10
2 2 2 2 2 3 3 3 2 2 2 2 2 2 2 1 2 2 3 4 4 2 1 1 1 2 1 1 2 2 2 6 7 8 7 7 7 8 8 8 9 9 9
3 4 3 3 2 2 3 3 2 2 3 2 2 3 2 1 2 2 2 2 3 4 2 1 1 1 1 1 2 2 2 5 6 7 7 7 7 7 8 8 8 9 9
3 4 3 3 3 3 3 3 3 3 3 2 2 3 2 2 2 2 2 2 3 3 3 0 1 1 1 1 2 2 2 2 2 6 6 6 6 6 6 7 7 7 8
3 3 4 3 3 3 3 3 3 3 3 3 2 3 2 3 3 2 2 2 2 2 3 2 0 1 0 0 1 1 2 1 1 4 4 5 5 6 6 6 6 6 7
3 3 4 4 4 3 3 3 3 3 3 3 3 3 3 3 3 2 2 2 1 2 2 3 1 0 1 1 1 1 2 2 2 2 3 3 4 4 5 5 5 5 5
3 3 3 4 4 3 3 3 3 3 2 2 2 3 3 4 4 4 3 2 2 3 3 2 1 0 1 1 1 1 2 2 2 2 2 2 3 4 4 4 4 4 4
4 4 4 3 3 3 3 4 3 3 3 2 2 2 2 4 6 5 4 4 4 3 2 2 1 1 1 1 1 1 0 1 2 1 2 2 2 2 3 3 3 3 3
3 4 4 4 4 3 6 7 5 3 3 3 2 1 1 2 4 5 6 7 7 5 4 3 1 1 2 2 1 0 0 1 2 2 1 2 1 1 2 2 3 4 4
4 4 4 4 4 3 6 7 7 4 3 3 3 2 2 2 3 3 4 4 3 4 6 5 4 3 3 3 2 1 1 1 2 2 1 2 2 2 2 2 3 3 3
4 4 4 4 4 3 6 7 7 4 3 3 3 3 3 2 3 4 4 3 1 1 2 3 3 3 3 3 3 3 3 1 1 1 1 0 2 2 2 2 4 4 3
4 4 4 4 4 3 5 7 7 3 3 2 2 3 3 3 4 6 5 3 1 1 1 2 2 2 1 2 3 2 2 1 1 2 0 1 1 2 2 2 3 4 4
5 4 4 4 4 3 5 7 7 3 3 2 1 1 3 4 5 7 5 4 3 1 1 2 2 2 1 1 2 2 2 2 1 2 1 1 1 1 2 2 2 2 3
Wind_Direction
128 118 87 50 64 94 103 96 82 76 69 72 80 93 88 81 79 64 54 67 68 68 70 72 71 73 70 65 62 56 52 46 44 41 40 41 42 39 35 32 28 26 26
132 122 106 85 80 94 101 103 98 91 79 79 82 88 88 88 81 73 58 60 66 66 64 68 67 67 66 63 61 57 52 46 43 41 43 42 42 38 35 33 30 28 26
122 116 108 91 91 102 99 92 85 83 87 83 79 82 83 81 82 73 62 55 54 59 63 64 61 60 60 58 58 56 51 46 42 43 44 43 40 39 38 35 33 31 29
114 104 102 103 109 103 100 97 92 86 81 80 74 68 69 76 80 78 70 62 51 50 55 61 58 55 54 51 51 51 48 47 46 46 45 43 41 40 38 37 35 34 32
111 106 104 110 105 97 101 113 98 104 100 92 84 68 56 61 67 80 73 66 60 54 49 54 54 52 51 48 45 44 45 46 47 47 46 44 42 41 40 39 38 36 35
110 112 110 105 101 96 93 104 106 90 102 104 88 71 49 43 53 62 67 60 57 63 56 52 43 39 44 45 42 41 42 46 47 48 47 45 43 42 41 41 43 41 38
114 113 111 103 106 110 123 124 113 99 96 108 90 63 37 36 45 44 50 57 54 57 57 53 45 35 28 35 37 40 38 41 44 46 45 44 43 44 44 45 45 44 41
115 126 130 130 122 117 115 119 119 114 117 120 117 102 57 18 16 33 37 56 50 49 54 54 47 42 31 17 25 37 34 36 42 44 46 46 47 47 48 49 49 47 44
123 128 138 136 129 129 137 140 139 138 144 172 135 135 137 168 353 6 25 37 39 46 45 47 49 38 36 23 9 23 32 33 39 42 44 45 48 50 55 53 54 51 47
119 130 135 135 138 138 143 150 141 145 139 150 3 84 143 148 140 89 5 9 26 39 40 55 46 32 28 22 26 31 32 31 35 38 42 45 47 53 57 57 56 52 49
102 120 131 132 138 142 146 138 129 132 143 155 157 121 92 81 104 128 134 343 8 4 24 44 43 27 22 19 14 31 37 35 36 37 41 45 47 52 55 56 53 51 50
61 119 132 130 137 138 143 144 137 136 143 133 129 129 139 140 150 133 140 151 29 332 1 20 29 17 11 12 27 39 41 40 40 40 42 44 46 49 51 53 52 50 49
174 189 140 135 138 140 138 133 130 141 144 136 138 136 137 150 148 134 132 145 124 320 353 2 350 356 17 11 11 36 41 43 42 43 45 45 45 45 46 47 48 47 47
190 175 150 143 140 135 130 122 117 133 126 134 129 128 119 117 128 141 145 141 117 15 13 334 334 347 355 3 14 22 31 44 41 42 46 47 47 46 45 46 45 43 43
168 153 143 136 130 122 123 120 111 115 113 115 121 117 109 108 116 123 133 143 141 138 333 303 324 322 339 18 23 26 21 43 43 44 48 50 52 51 49 47 44 42 42
156 144 144 136 123 114 115 115 115 119 114 110 114 107 99 100 102 102 120 122 128 140 158 255 258 276 322 68 60 29 27 43 44 48 52 54 55 54 53 51 48 45 43
161 157 155 145 137 135 122 120 119 115 112 98 92 115 121 115 106 105 110 103 102 115 132 257 328 344 48 38 13 7 11 6 19 46 53 54 53 54 51 50 50 49 47
175 167 155 147 149 144 137 139 139 129 126 124 121 116 123 123 113 114 113 114 122 129 134 140 2 5 10 324 19 6 7 16 2 33 45 48 49 50 51 50 48 46 44
159 149 144 149 148 143 142 145 140 133 132 138 143 143 149 134 131 129 130 127 124 112 112 131 144 342 344 6 29 3 11 356 1 16 25 32 35 38 44 45 42 41 41
157 150 151 151 145 142 143 144 139 137 133 130 141 153 159 157 165 161 148 145 126 105 104 112 113 28 338 333 54 16 358 348 343 1 12 19 23 24 27 35 36 35 35
158 151 142 141 145 151 158 145 141 141 140 132 126 146 162 162 164 160 153 153 138 126 119 115 115 49 347 8 288 271 295 321 325 347 352 347 357 359 349 355 8 18 24
148 140 145 149 151 159 157 153 142 138 143 147 148 140 136 140 147 148 150 153 152 150 154 146 153 177 237 230 221 181 121 41 324 312 41 321 3 329 319 328 5 19 23
155 149 156 151 151 165 160 154 149 139 143 152 156 149 130 125 131 131 129 126 140 149 156 159 164 194 203 209 178 168 166 170 231 276 87 313 335 318 309 334 352 4 12
159 160 163 160 155 170 163 160 154 136 132 144 152 154 147 146 149 143 128 110 99 104 167 162 176 199 200 194 182 182 181 169 307 329 109 263 310 302 318 322 343 354 352
163 165 161 164 162 176 172 166 152 138 132 144 151 149 155 159 160 149 133 132 110 343 16 139 155 164 132 136 140 110 95 89 336 312 347 158 294 312 322 318 332 346 347
169 164 161 169 171 182 182 174 161 147 147 154 138 149 157 155 154 153 150 150 159 224 116 68 53 25 16 37 112 143 158 144 170 283 291 149 290 353 324 315 330 341 343